DG1UDO-13 Weather Reports


time (UTC)temp
C
wind
direction
speed
KPH
gust
KPH
rain 1hr
cm
rain 24hr
cm
rain mn
cm
humidity
%
barometer
mb
20260506143500 10 56 4.8 0.0 0.00 0.00 0.00 72 1010.1
20260506140500 11 114 9.7 0.0 0.00 0.00 0.00 67 1010.0
20260506133500 11 120 11.3 0.0 0.00 0.00 0.00 60 1009.9
20260506130500 12 95 6.4 0.0 0.00 0.00 0.00 56 1009.7
20260506123500 12 96 11.3 0.0 0.00 0.00 0.00 50 1009.4
20260506120500 13 99 8.0 0.0 0.00 0.00 0.00 48 1009.2
20260506113500 12 60 9.7 0.0 0.00 0.00 0.00 48 1009.2
20260506110500 12 87 6.4 0.0 0.00 0.00 0.00 54 1009.4
20260506103500 11 46 4.8 0.0 0.00 0.00 0.00 58 1009.3
20260506100500 11 65 3.2 0.0 0.00 0.00 0.00 59 1009.5
20260506093500 11 48 8.0 0.0 0.00 0.00 0.00 57 1009.4
20260506090500 10 66 14.5 0.0 0.00 0.00 0.00 59 1009.3
20260506083500 10 58 12.9 0.0 0.00 0.00 0.00 63 1009.2
20260506080500 9 72 6.4 0.0 0.00 0.00 0.00 66 1009.0
20260506073500 9 52 14.5 0.0 0.00 0.00 0.00 65 1009.0
20260506070500 9 56 12.9 0.0 0.00 0.00 0.00 65 1009.0
20260506060500 8 43 3.2 0.0 0.00 0.00 0.00 70 1008.8
20260506050500 8 47 8.0 0.0 0.00 0.00 0.00 74 1008.9
20260506043500 8 38 11.3 0.0 0.00 0.00 0.00 76 1009.1
20260506040500 8 45 8.0 0.0 0.00 0.00 0.00 79 1008.8
20260506033500 8 50 6.4 0.0 0.00 0.00 0.00 80 1009.1
20260506030500 8 70 6.4 0.0 0.00 0.00 0.00 83 1009.1
20260506023500 9 58 4.8 0.0 0.00 0.00 0.00 79 1009.7
20260506020500 9 78 3.2 0.0 0.00 0.00 0.00 81 1009.7
20260506013500 9 47 6.4 0.0 0.00 0.00 0.00 81 1009.9
20260506010500 9 110 4.8 0.0 0.00 0.00 0.00 80 1010.1
20260506003500 9 41 9.7 0.0 0.00 0.00 0.00 81 1010.4
20260506000500 9 48 3.2 0.0 0.00 0.00 0.00 82 1010.3
20260505233500 10 18 8.0 0.0 0.00 0.00 0.00 81 1010.5
20260505230500 10 66 4.8 0.0 0.00 0.00 0.00 80 1010.4
20260505223500 10 61 3.2 0.0 0.00 0.00 0.00 79 1010.7
20260505220501 10 82 6.4 0.0 0.00 0.00 0.00 77 1010.6
20260505213502 11 83 4.8 0.0 0.00 0.00 0.00 76 1010.7
20260505210501 11 76 4.8 0.0 0.00 0.00 0.00 72 1010.9
20260505203501 12 70 8.0 0.0 0.00 0.00 0.00 69 1010.7
20260505200501 12 39 8.0 0.0 0.00 0.00 0.00 71 1010.4
20260505193500 12 64 6.4 0.0 0.00 0.00 0.00 71 1010.5
20260505190500 12 73 3.2 0.0 0.00 0.00 0.00 71 1010.5
20260505183500 12 61 4.8 0.0 0.00 0.00 0.00 71 1010.6
20260505180500 12 26 6.4 0.0 0.00 0.00 0.00 70 1010.5
20260505173500 13 43 8.0 0.0 0.00 0.00 0.00 74 1010.6
20260505170500 13 112 6.4 0.0 0.00 0.00 0.00 75 1010.5
20260505163500 13 56 3.2 0.0 0.00 0.00 0.00 74 1010.7
20260505160500 13 87 6.4 0.0 0.00 0.00 0.00 76 1011.0
20260505150500 13 74 1.6 0.0 0.00 0.00 0.00 78 1011.2